sat.trackr.live / text

‹ back to catalog

STARLINK-35652

NORAD 66393 · 2025-257P

PAYLOAD ACTIVE UNKNOWN

§ Identity

Operator
Country
US
Launch date
2025-11-09
Launch site
AFETR
Launch vehicle
Mass (kg)
RCS (m²)

Purposes: comms

External: N2YO · Heavens-Above · Gunter

§ Orbital elements

Epoch: 2026-09-20T19:51:21.117600Z

Period
93.85 min
Inclination
53.1590°
Eccentricity
0.0000836
Mean motion
15.34415696 rev/d
Perigee alt
462.1 km
Apogee alt
463.2 km
Semi-major
6,840.8 km
B*
4.9929e-4
RAAN
28.2383°
Arg perigee
109.4346°
Mean anomaly
250.6747°
Rev number
4,964

§ Raw data

STARLINK-356521 66393U 25257P   26263.82732775  .00016539  00000+0  49929-3 0  99972 66393  53.1590  28.2383 0000836 109.4346 250.6747 15.34415696 49640

JSON: /api/v1/satellites/66393 · /tle

For live sub-satellite position, see the globe view (requires WebGL).

§ Visibility from observer

Set your observer location to see the next 7 days of passes ≥ 10°. The values pass through the URL so the page stays shareable.

No JS? Fill the form by hand. The geolocation button needs JavaScript.